Flag for U.S.A. Weather past 2 weeks in Fort Lauderdale, Florida, U.S.A.

Now
62 °F

Overcast.


Feels Like: 62 °F
Forecast: 59 / 74 °F
Wind: No wind

Location: Fort Lauderdale / Hollywood International Airport

Current Time: Jan 30, 2015 at 2:01:24 AM

Latest Report: Jan 30, 2015 at 12:53 AM


Visibility: 10 mi

Pressure: 30.18 "Hg

Humidity: 73%

Dew point: 53 °F

Location of Fort LauderdaleLocation

Historic Weather in Fort Lauderdale — Graph

°F

Fort Lauderdale temperature yesterday

Maximum temperature yesterday: 70 °F (at 12:53 PM)
Minimum temperature yesterday: 53 °F (at 1:53 AM)
Average temperature yesterday: 62 °F

Past Weeks' High & Low Weather Summary

 TemperatureHumidityPressure
High79 °F (Jan 21, 12:53 PM)97% (Jan 15, 1:53 AM)30.27 "Hg (Jan 15, 1:53 AM)
Low49 °F (Jan 25, 6:53 AM)27% (Jan 28, 3:53 PM)29.84 "Hg (Jan 26, 2:53 PM)
Average66 °F71%30.06 "Hg
* Reported Jan 15 12:53 AM — Jan 30 12:53 AM, Fort Lauderdale, Weather by CustomWeather, © 2014

Note: Actual official high and low records may vary slightly from our data, if they occured in-between our weather recording intervals... More about our weather records

Advertising

Fort Lauderdale weather history for previous 24 hours

 ConditionsComfort  
Time TempWeatherWind HumidityBarometerVisibility
12:53 AM
Jan 30
62 °FOvercast.No wind73%30.18 "Hg10 mi
11:53 PM
Jan 29
61 °FPassing clouds.6 mph72%30.20 "Hg10 mi
10:53 PM62 °FPassing clouds.6 mph70%30.21 "Hg10 mi
9:53 PM63 °FOvercast.7 mph70%30.22 "Hg10 mi
8:53 PM64 °FPassing clouds.3 mph65%30.21 "Hg10 mi
7:53 PM65 °FPassing clouds.6 mph61%30.21 "Hg10 mi
6:53 PM65 °FPassing clouds.7 mph61%30.20 "Hg10 mi
5:53 PM66 °FScattered clouds.8 mph61%30.20 "Hg10 mi
4:53 PM68 °FPartly sunny.8 mph55%30.21 "Hg10 mi
3:53 PM69 °FScattered clouds.7 mph51%30.20 "Hg10 mi
2:53 PM70 °FScattered clouds.12 mph49%30.20 "Hg10 mi
1:53 PM69 °FPartly sunny.17 mph51%30.20 "Hg10 mi
12:53 PM70 °FPartly sunny.14 mph47%30.23 "Hg10 mi
11:53 AM69 °FBroken clouds.14 mph51%30.26 "Hg10 mi
10:53 AM68 °FBroken clouds.14 mph51%30.27 "Hg10 mi
9:53 AM66 °FBroken clouds.8 mph54%30.26 "Hg10 mi
8:53 AM67 °FScattered clouds.12 mph51%30.24 "Hg10 mi
7:53 AM55 °FPartly sunny.6 mph83%30.23 "Hg10 mi
6:53 AM54 °FPassing clouds.8 mph86%30.22 "Hg10 mi
5:53 AM54 °FPassing clouds.6 mph86%30.19 "Hg10 mi
4:53 AM53 °FPassing clouds.6 mph86%30.17 "Hg10 mi
3:53 AM53 °FPartly cloudy.8 mph86%30.18 "Hg10 mi
2:53 AM53 °FPassing clouds.6 mph83%30.17 "Hg10 mi
Weather by CustomWeather, © 2014

See weather overviewHow to use our weather pages